CST,Max TemperatureF,Mean TemperatureF,Min TemperatureF,Max Dew PointF,MeanDew PointF,Min DewpointF,Max Humidity, Mean Humidity, Min Humidity, Max Sea Level PressureIn, Mean Sea Level PressureIn, Min Sea Level PressureIn, Max VisibilityMiles, Mean VisibilityMiles, Min VisibilityMiles, Max Wind SpeedMPH, Mean Wind SpeedMPH, Max Gust SpeedMPH,PrecipitationIn, CloudCover, Events, WindDirDegrees
2013-2-1,72,57,42,44,38,34,85,55,25,30.35,30.26,30.17,10,10,10,15,4,22,0.00,0,,155
2013-2-2,75,60,44,55,48,41,90,66,40,30.26,30.21,30.15,10,10,10,10,1,,0.00,2,,132
2013-2-3,71,63,55,55,45,37,83,53,36,30.32,30.19,30.02,10,10,10,12,8,16,0.00,3,,96
2013-2-4,75,65,53,59,56,50,93,76,48,30.02,29.90,29.78,10,10,2,13,7,20,0.00,5,,182
2013-2-5,80,66,51,58,46,36,97,61,20,29.99,29.91,29.86,10,10,6,10,1,,0.04,2,Rain,41
2013-2-6,72,66,60,61,60,58,100,87,64,29.98,29.93,29.82,10,10,10,12,7,,0.00,6,Rain,121
2013-2-7,77,68,59,62,57,40,96,76,38,30.04,29.94,29.86,10,10,7,9,5,,0.00,4,,202
2013-2-8,70,60,51,46,38,32,68,45,25,30.21,30.12,30.05,10,10,10,17,10,25,0.00,0,,54
2013-2-9,70,62,55,67,59,41,100,94,59,30.07,29.93,29.77,10,4,1,17,8,26,0.00,8,Rain,118
2013-2-10,71,66,62,67,44,26,100,52,22,30.02,29.86,29.75,10,9,3,15,8,23,0.00,8,,52
2013-2-11,61,56,51,52,45,35,100,67,39,30.03,29.98,29.93,10,9,2,15,9,20,0.01,7,Rain,53
2013-2-12,73,62,51,55,47,18,100,77,16,30.05,29.90,29.81,10,6,2,14,6,20,0.00,5,,338
2013-2-13,64,54,43,36,32,28,73,48,25,30.17,30.09,30.02,10,10,10,15,8,29,0.00,0,,13
2013-2-14,68,52,37,40,37,34,89,59,33,30.16,30.08,30.01,10,10,8,10,3,,0.00,0,,162
2013-2-15,68,54,39,46,39,24,93,61,33,30.38,30.20,30.08,10,10,10,16,5,28,0.00,3,,23
2013-2-16,64,48,33,32,25,19,72,39,23,30.50,30.36,30.24,10,10,10,13,4,16,0.00,0,,231
2013-2-17,70,52,34,53,39,28,86,57,35,30.23,30.12,29.98,10,10,10,20,8,31,0.00,3,,169
2013-2-18,79,70,60,60,51,26,88,62,23,30.04,29.92,29.84,10,10,8,14,9,18,0.00,5,,179
2013-2-19,66,57,48,36,31,26,54,36,22,30.23,30.13,30.06,10,10,10,16,10,25,0.00,3,,74
2013-2-20,70,62,54,66,57,27,94,81,31,30.06,29.84,29.64,10,9,6,20,12,28,0.00,8,Rain,110
2013-2-21,78,70,51,66,43,20,90,47,14,29.85,29.71,29.58,10,9,5,20,10,29,0.00,3,,316
2013-2-22,64,58,51,39,33,25,59,42,31,30.00,29.93,29.86,10,10,10,15,7,22,0.00,3,,39
2013-2-23,71,58,45,41,35,28,61,46,28,30.06,29.96,29.86,10,10,10,10,6,,0.00,0,,63
2013-2-24,69,56,42,61,53,39,100,79,60,29.91,29.76,29.59,10,9,2,15,6,20,0.00,6,,120
2013-2-25,64,57,48,61,41,12,100,61,13,29.89,29.67,29.56,10,6,0,34,10,54,0.01,5,Fog-Rain,302
2013-2-26,64,50,36,32,26,23,67,39,21,29.98,29.91,29.85,10,10,10,12,7,20,0.00,0,,266
2013-2-27,66,52,39,35,29,22,82,42,20,30.22,30.06,29.87,10,10,10,16,6,24,0.00,0,,351
2013-2-28,63,52,41,29,26,19,62,39,22,30.33,30.25,30.18,10,10,10,15,5,23,0.00,0,,19